Location: Antioch Church
(34.9543°N, 88.5145°W)
Time: 12:51:49
(UTC+00:00)

Cosmos 371 Rocket - Pass Details

Date: 11 December 2019
Orbit: 683 x 700 km, 74.0° (Epoch: 16 January)

Event Time Altitude Azimuth Distance (km) Brightness Sun altitude
Rises 11:39:05 0° 197° (SSW) 3,039 6.6 -14.5°
Reaches altitude 10° 11:41:22 10° 198° (SSW) 2,129 5.8 -14.1°
Maximum altitude 11:46:10 85° 287° (WNW) 698 3.2 -13.1°
Drops below altitude 10° 11:51:02 10° 16° (NNE) 2,154 5.8 -12.2°
Sets 11:53:22 0° 17° (NNE) 3,077 6.6 -11.7°
